| time (UTC) | temp F | wind direction | speed MPH | gust MPH | rain 1hr in | rain 24hr in | rain mn in | humidity % | barometer mb |
| 20260906214511 | 65 | 86 | 1.0 | 4.0 | 0.00 | 0.00 | 0.00 | 79 | 1013.1 |
| 20260906213006 | 64 | 176 | 1.0 | 5.0 | 0.00 | 0.00 | 0.00 | 80 | 1013.1 |
| 20260906211508 | 64 | 38 | 2.0 | 3.0 | 0.00 | 0.00 | 0.00 | 80 | 1013.0 |
| 20260906210002 | 64 | 86 | 2.0 | 6.0 | 0.00 | 0.00 | 0.00 | 79 | 1013.1 |
| 20260906204606 | 63 | 158 | 0.0 | 4.0 | 0.00 | 0.00 | 0.00 | 80 | 1013.0 |
| 20260906203059 | 63 | 135 | 0.0 | 3.0 | 0.00 | 0.00 | 0.00 | 80 | 1012.9 |
| 20260906201606 | 62 | 9 | 1.0 | 4.0 | 0.00 | 0.00 | 0.00 | 81 | 1013.0 |
| 20260906200052 | 62 | 63 | 0.0 | 3.0 | 0.00 | 0.00 | 0.00 | 82 | 1012.9 |
| 20260906194552 | 62 | 82 | 0.0 | 3.0 | 0.00 | 0.00 | 0.00 | 82 | 1012.9 |
| 20260906193050 | 62 | 89 | 0.0 | 3.0 | 0.00 | 0.00 | 0.00 | 82 | 1012.9 |
| 20260906191547 | 61 | 88 | 2.0 | 6.0 | 0.00 | 0.00 | 0.00 | 83 | 1012.7 |
| 20260906190045 | 61 | 336 | 1.0 | 3.0 | 0.00 | 0.00 | 0.00 | 84 | 1012.9 |
| 20260906184552 | 61 | 32 | 0.0 | 2.0 | 0.00 | 0.00 | 0.00 | 84 | 1012.9 |
| 20260906183043 | 61 | 54 | 0.0 | 3.0 | 0.00 | 0.00 | 0.00 | 86 | 1012.8 |
| 20260906181539 | 60 | 52 | 0.0 | 2.0 | 0.00 | 0.00 | 0.00 | 85 | 1012.7 |
| 20260906180055 | 60 | 355 | 1.0 | 3.0 | 0.00 | 0.00 | 0.00 | 84 | 1012.8 |
| 20260906174538 | 59 | 59 | 0.0 | 2.0 | 0.00 | 0.00 | 0.00 | 84 | 1012.9 |
| 20260906173035 | 59 | 360 | 0.0 | 2.0 | 0.00 | 0.00 | 0.00 | 86 | 1012.7 |
| 20260906171532 | 59 | 342 | 0.0 | 1.0 | 0.00 | 0.00 | 0.00 | 88 | 1012.7 |
| 20260906170027 | 59 | 340 | 0.0 | 1.0 | 0.00 | 0.00 | 0.00 | 89 | 1012.7 |
| 20260906164525 | 58 | 340 | 0.0 | 2.0 | 0.00 | 0.00 | 0.00 | 87 | 1012.7 |
| 20260906163026 | 58 | 342 | 0.0 | 2.0 | 0.00 | 0.00 | 0.00 | 88 | 1012.6 |
| 20260906161522 | 58 | 343 | 0.0 | 2.0 | 0.00 | 0.00 | 0.00 | 89 | 1012.6 |
| 20260906160020 | 57 | 342 | 0.0 | 1.0 | 0.00 | 0.00 | 0.00 | 91 | 1012.5 |
| 20260906154520 | 56 | 342 | 0.0 | 1.0 | 0.00 | 0.00 | 0.00 | 94 | 1012.4 |
| 20260906153017 | 56 | 342 | 0.0 | 1.0 | 0.00 | 0.00 | 0.00 | 94 | 1012.2 |
| 20260906151515 | 56 | 342 | 0.0 | 1.0 | 0.00 | 0.00 | 0.00 | 95 | 1012.0 |
| 20260906150111 | 55 | 342 | 0.0 | 1.0 | 0.00 | 0.00 | 0.00 | 94 | 1012.0 |
| 20260906144511 | 55 | 342 | 0.0 | 0.0 | 0.00 | 0.00 | 0.00 | 94 | 1011.8 |
| 20260906143005 | 55 | 342 | 0.0 | 1.0 | 0.00 | 0.00 | 0.00 | 94 | 1011.7 |
| 20260906141503 | 55 | 342 | 0.0 | 0.0 | 0.00 | 0.00 | 0.00 | 94 | 1011.5 |
| 20260906140004 | 55 | 342 | 0.0 | 1.0 | 0.00 | 0.00 | 0.00 | 94 | 1011.3 |
| 20260906134501 | 55 | 342 | 0.0 | 0.0 | 0.00 | 0.00 | 0.00 | 93 | 1011.5 |
| 20260906133104 | 55 | 342 | 0.0 | 2.0 | 0.00 | 0.00 | 0.00 | 93 | 1011.4 |
| 20260906131600 | 55 | 307 | 0.0 | 1.0 | 0.00 | 0.00 | 0.00 | 94 | 1011.3 |
| 20260906130100 | 55 | 307 | 0.0 | 1.0 | 0.00 | 0.00 | 0.00 | 94 | 1011.2 |
| 20260906124557 | 56 | 307 | 0.0 | 1.0 | 0.00 | 0.00 | 0.00 | 93 | 1011.2 |
| 20260906123057 | 56 | 307 | 0.0 | 0.0 | 0.00 | 0.00 | 0.00 | 93 | 1011.4 |
| 20260906121558 | 56 | 307 | 0.0 | 0.0 | 0.00 | 0.00 | 0.00 | 93 | 1011.3 |
| 20260906120111 | 56 | 307 | 0.0 | 2.0 | 0.00 | 0.00 | 0.00 | 93 | 1011.4 |
| 20260906114553 | 56 | 307 | 0.0 | 0.0 | 0.00 | 0.00 | 0.00 | 93 | 1011.4 |
| 20260906113056 | 56 | 307 | 0.0 | 1.0 | 0.00 | 0.00 | 0.00 | 93 | 1011.3 |
| 20260906111606 | 56 | 307 | 0.0 | 1.0 | 0.00 | 0.00 | 0.00 | 92 | 1011.4 |
| 20260906110049 | 56 | 307 | 0.0 | 1.0 | 0.00 | 0.00 | 0.00 | 92 | 1011.5 |
| 20260906104548 | 56 | 307 | 0.0 | 1.0 | 0.00 | 0.00 | 0.00 | 92 | 1011.4 |
| 20260906103047 | 56 | 307 | 0.0 | 1.0 | 0.00 | 0.00 | 0.00 | 92 | 1011.5 |
| 20260906101546 | 57 | 307 | 0.0 | 1.0 | 0.00 | 0.00 | 0.00 | 92 | 1011.5 |
| 20260906100044 | 57 | 307 | 0.0 | 1.0 | 0.00 | 0.00 | 0.00 | 91 | 1011.5 |
| 20260906094543 | 57 | 307 | 0.0 | 1.0 | 0.00 | 0.00 | 0.00 | 91 | 1011.6 |
| 20260906093041 | 57 | 307 | 0.0 | 2.0 | 0.00 | 0.00 | 0.00 | 90 | 1011.7 |
| 20260906091540 | 58 | 306 | 0.0 | 1.0 | 0.00 | 0.00 | 0.00 | 90 | 1011.6 |
| 20260906090038 | 58 | 306 | 0.0 | 1.0 | 0.00 | 0.00 | 0.00 | 89 | 1011.4 |
| 20260906084547 | 58 | 306 | 0.0 | 2.0 | 0.00 | 0.00 | 0.00 | 89 | 1011.4 |
| 20260906083039 | 58 | 314 | 1.0 | 2.0 | 0.00 | 0.00 | 0.00 | 90 | 1011.3 |
| 20260906081536 | 57 | 325 | 0.0 | 2.0 | 0.00 | 0.00 | 0.00 | 91 | 1011.3 |
| 20260906080036 | 57 | 321 | 0.0 | 1.0 | 0.00 | 0.00 | 0.00 | 91 | 1011.3 |
| 20260906074534 | 57 | 321 | 0.0 | 1.0 | 0.00 | 0.00 | 0.00 | 91 | 1011.4 |
| 20260906073039 | 58 | 321 | 0.0 | 3.0 | 0.00 | 0.00 | 0.00 | 90 | 1011.4 |
| 20260906071530 | 58 | 360 | 0.0 | 1.0 | 0.00 | 0.00 | 0.00 | 90 | 1011.7 |
| 20260906070027 | 58 | 355 | 0.0 | 2.0 | 0.00 | 0.00 | 0.00 | 92 | 1011.6 |
| 20260906064526 | 57 | 355 | 0.0 | 2.0 | 0.00 | 0.00 | 0.00 | 92 | 1011.6 |
| 20260906063026 | 57 | 355 | 0.0 | 1.0 | 0.00 | 0.00 | 0.00 | 92 | 1011.5 |
| 20260906061526 | 56 | 343 | 0.0 | 0.0 | 0.00 | 0.00 | 0.00 | 92 | 1011.8 |
| 20260906060033 | 57 | 343 | 0.0 | 0.0 | 0.00 | 0.00 | 0.00 | 91 | 1011.9 |
| 20260906054526 | 57 | 343 | 0.0 | 0.0 | 0.00 | 0.00 | 0.00 | 90 | 1011.9 |
| 20260906053024 | 58 | 329 | 0.0 | 4.0 | 0.00 | 0.00 | 0.00 | 89 | 1011.7 |
| 20260906051525 | 58 | 309 | 0.0 | 2.0 | 0.00 | 0.00 | 0.00 | 88 | 1011.8 |
| 20260906050025 | 58 | 349 | 0.0 | 1.0 | 0.00 | 0.00 | 0.00 | 88 | 1012.1 |
| 20260906044525 | 58 | 349 | 0.0 | 1.0 | 0.00 | 0.00 | 0.00 | 89 | 1012.2 |
| 20260906043029 | 58 | 349 | 0.0 | 0.0 | 0.00 | 0.00 | 0.00 | 87 | 1012.3 |
| 20260906041522 | 59 | 349 | 0.0 | 1.0 | 0.00 | 0.00 | 0.00 | 86 | 1012.3 |
| 20260906040028 | 59 | 349 | 0.0 | 1.0 | 0.00 | 0.00 | 0.00 | 84 | 1012.2 |
| 20260906034532 | 59 | 349 | 0.0 | 1.0 | 0.00 | 0.00 | 0.00 | 83 | 1011.8 |
| 20260906033026 | 59 | 349 | 0.0 | 3.0 | 0.00 | 0.00 | 0.00 | 83 | 1011.8 |
| 20260906031520 | 59 | 207 | 0.0 | 0.0 | 0.00 | 0.00 | 0.00 | 83 | 1011.5 |
| 20260906030020 | 60 | 207 | 0.0 | 1.0 | 0.00 | 0.00 | 0.00 | 84 | 1011.4 |
| 20260906024517 | 61 | 207 | 0.0 | 0.0 | 0.00 | 0.00 | 0.00 | 82 | 1011.5 |
| 20260906023018 | 62 | 207 | 0.0 | 0.0 | 0.00 | 0.00 | 0.00 | 80 | 1011.7 |
| 20260906021519 | 63 | 207 | 0.0 | 1.0 | 0.00 | 0.00 | 0.00 | 76 | 1011.7 |
| 20260906020015 | 64 | 207 | 0.0 | 1.0 | 0.00 | 0.00 | 0.00 | 74 | 1011.8 |
| 20260906014526 | 65 | 207 | 0.0 | 1.0 | 0.00 | 0.00 | 0.00 | 75 | 1011.7 |
| 20260906013016 | 67 | 207 | 0.0 | 2.0 | 0.00 | 0.00 | 0.00 | 64 | 1011.9 |
| 20260906011522 | 66 | 106 | 0.0 | 3.0 | 0.00 | 0.00 | 0.00 | 67 | 1011.9 |
| 20260906010013 | 68 | 104 | 0.0 | 3.0 | 0.00 | 0.00 | 0.00 | 61 | 1011.9 |
| 20260906004517 | 68 | 84 | 0.0 | 3.0 | 0.00 | 0.00 | 0.00 | 61 | 1012.1 |
| 20260906003009 | 69 | 317 | 0.0 | 3.0 | 0.00 | 0.00 | 0.00 | 57 | 1012.0 |
| 20260906001508 | 69 | 80 | 1.0 | 3.0 | 0.00 | 0.00 | 0.00 | 58 | 1012.0 |
| 20260906000003 | 69 | 225 | 0.0 | 4.0 | 0.00 | 0.00 | 0.00 | 59 | 1011.9 |
| 20260905234608 | 69 | 263 | 0.0 | 3.0 | 0.00 | 0.00 | 0.00 | 61 | 1012.0 |
| 20260905234501 | 68 | 33 | 1.0 | 3.0 | 0.00 | 0.00 | 0.00 | 62 | 1012.1 |
| 20260905233101 | 68 | 58 | 0.0 | 5.0 | 0.00 | 0.00 | 0.00 | 62 | 1012.1 |
| 20260905231558 | 70 | 152 | 1.0 | 7.0 | 0.00 | 0.00 | 0.00 | 58 | 1012.1 |
| 20260905230053 | 70 | 78 | 1.0 | 4.0 | 0.00 | 0.00 | 0.00 | 56 | 1012.2 |
| 20260905224548 | 70 | 108 | 0.0 | 5.0 | 0.00 | 0.00 | 0.00 | 59 | 1012.0 |
| 20260905223046 | 69 | 126 | 1.0 | 3.0 | 0.00 | 0.00 | 0.00 | 58 | 1012.1 |
| 20260905221546 | 70 | 201 | 1.0 | 4.0 | 0.00 | 0.00 | 0.00 | 55 | 1012.4 |
| 20260905220045 | 70 | 269 | 1.0 | 4.0 | 0.00 | 0.00 | 0.00 | 57 | 1012.4 |
| 20260905214540 | 70 | 120 | 1.0 | 9.0 | 0.00 | 0.00 | 0.00 | 55 | 1012.4 |